{"data":{"norad_id":69136,"epoch":"2026-09-19T18:19:59.988864Z","epoch_age_seconds":86856,"freshness":"FRESH","line1":"1 69136U 26110N   26262.76388876  .00014918  00000+0  46335-3 0  9992","line2":"2 69136  97.2852  97.8357 0001327  47.1740 312.9614 15.33454931 20102","mean_motion":15.33454931,"eccentricity":0.0001327,"inclination_deg":97.2852,"raan_deg":97.8357,"arg_perigee_deg":47.174,"mean_anomaly_deg":312.9614,"bstar":0.00046335,"rev_number":2010,"period_min":93.905596499073,"perigee_km":464.60547453045,"apogee_km":466.42177940685,"semimajor_km":6843.6506269686,"source":"CELESTRAK","updated_at":"2026-09-20T09:00:44.086606Z"}}